FW1629 Weather Reports


Display with metric or nautical units.
time (UTC)temp
F
wind
direction
speed
MPH
gust
MPH
rain 1hr
in
rain 24hr
in
rain mn
in
humidity
%
barometer
mb
20260504081533 32 347 0.0 4.0 0.00 0.00 0.00 81 1004.6
20260504044549 36 315 0.0 1.0 0.00 0.00 0.00 70 1005.1
20260504043055 37 325 0.0 13.0 0.00 0.00 0.00 70 1005.1
20260504041545 37 8 5.0 19.0 0.00 0.00 0.00 69 1004.9
20260504040042 37 27 12.0 20.0 0.00 0.00 0.00 69 1004.9
20260504034541 37 8 4.0 27.0 0.00 0.00 0.00 69 1005.0
20260504033040 39 32 19.0 24.0 0.00 0.00 0.00 67 1004.9
20260504031639 39 31 14.0 23.0 0.00 0.00 0.00 66 1004.9
20260504030036 39 13 19.0 31.0 0.00 0.00 0.00 65 1004.9
20260504024535 39 17 17.0 25.0 0.00 0.00 0.00 66 1005.1
20260504023034 39 2 4.0 18.0 0.00 0.00 0.00 67 1005.2
20260504021531 39 13 5.0 21.0 0.00 0.00 0.00 66 1005.2
20260504020044 40 345 5.0 15.0 0.00 0.00 0.00 66 1005.3
20260504014538 40 356 0.0 18.0 0.00 0.00 0.00 63 1005.5
20260504013037 41 9 1.0 11.0 0.00 0.00 0.00 64 1005.5
20260504011529 42 33 2.0 19.0 0.00 0.00 0.00 61 1005.6
20260504010029 42 21 18.0 26.0 0.00 0.00 0.00 59 1005.5
20260504004533 43 25 17.0 29.0 0.00 0.00 0.00 59 1005.4
20260504003027 43 20 16.0 30.0 0.00 0.00 0.00 58 1005.4
20260504001527 44 25 14.0 36.0 0.00 0.00 0.00 57 1005.1
20260504000027 45 1 18.0 37.0 0.00 0.00 0.00 57 1005.1
20260503234526 46 26 11.0 35.0 0.00 0.00 0.00 56 1004.9
20260503233024 47 19 7.0 21.0 0.00 0.00 0.00 64 1004.6
20260503231524 47 20 5.0 21.0 0.00 0.00 0.00 66 1004.5
20260503230024 47 14 0.0 0.0 0.00 0.00 0.00 69 1004.4
20260503224523 47 14 0.0 2.0 0.00 0.00 0.00 68 1004.5
20260503223023 47 14 0.0 15.0 0.00 0.00 0.00 67 1004.5
20260503221522 47 25 0.0 6.0 0.00 0.00 0.00 66 1004.4
20260503220022 48 41 14.0 19.0 0.00 0.00 0.00 64 1004.3
20260503214521 48 35 0.0 0.0 0.00 0.00 0.00 65 1004.3
20260503213021 48 336 0.0 1.0 0.00 0.00 0.00 66 1004.5
20260503211521 47 83 0.0 17.0 0.00 0.00 0.00 66 1004.4
20260503210020 48 42 0.0 4.0 0.00 0.00 0.00 65 1004.4
20260503204519 48 314 0.0 0.0 0.00 0.00 0.00 67 1004.5
20260503203040 47 74 0.0 0.0 0.00 0.00 0.00 61 1004.5
20260503201517 47 151 0.0 0.0 0.00 0.00 0.00 66 1004.5
20260503200017 46 125 2.0 24.0 0.00 0.00 0.00 69 1004.4
20260503194532 47 152 14.0 25.0 0.00 0.00 0.00 68 1004.4
20260503193015 47 157 14.0 23.0 0.00 0.00 0.00 68 1004.3
20260503191514 48 148 2.0 13.0 0.00 0.00 0.00 68 1004.2
20260503190017 47 154 18.0 28.0 0.00 0.00 0.00 74 1004.3
20260503184521 47 154 23.0 27.0 0.00 0.00 0.00 74 1004.3
20260503183009 47 167 17.0 24.0 0.00 0.00 0.00 75 1004.6
20260503181508 47 164 14.0 21.0 0.00 0.00 0.00 80 1004.8
20260503180008 47 181 6.0 16.0 0.00 0.00 0.00 76 1004.9
20260503174505 46 172 0.0 11.0 0.00 0.00 0.00 76 1005.0
20260503173003 46 159 0.0 16.0 0.00 0.00 0.00 75 1005.2
20260503171503 45 187 3.0 17.0 0.00 0.00 0.00 82 1005.4